FW1143 Weather Reports


time (UTC)temp
C
wind
direction
speed
KPH
gust
KPH
rain 1hr
cm
rain 24hr
cm
rain mn
cm
humidity
%
barometer
mb
20260508131605 11 309 8.0 14.5 0.00 0.03 0.00 47 1002.4
20260508124558 11 349 1.6 12.9 0.00 0.03 0.00 48 1002.4
20260508123055 11 310 0.0 9.7 0.00 0.03 0.00 52 1002.4
20260508121554 10 315 1.6 11.3 0.00 0.03 0.00 55 1002.4
20260508120053 8 305 0.0 0.0 0.00 0.03 0.00 59 1002.4
20260508114553 8 314 0.0 0.0 0.00 0.03 0.00 62 1002.5
20260508113052 7 310 0.0 3.2 0.00 0.03 0.00 63 1002.4
20260508111600 6 312 0.0 0.0 0.00 0.03 0.00 67 1002.3
20260508110048 6 312 0.0 0.0 0.00 0.03 0.00 70 1002.3
20260508104547 5 314 0.0 0.0 0.00 0.03 0.00 74 1002.2
20260508103049 4 314 0.0 0.0 0.00 0.03 0.00 74 1002.1
20260508101546 4 314 0.0 0.0 0.00 0.03 0.00 75 1001.9
20260508100040 3 314 0.0 0.0 0.00 0.03 0.00 78 1001.6
20260508094542 3 314 0.0 0.0 0.00 0.03 0.00 78 1001.5
20260508093039 3 314 0.0 0.0 0.00 0.03 0.00 78 1001.4
20260508091536 3 314 0.0 0.0 0.00 0.03 0.00 78 1001.6
20260508090037 2 314 0.0 0.0 0.00 0.03 0.00 78 1001.5
20260508084532 3 314 0.0 0.0 0.00 0.03 0.00 76 1001.3
20260508083029 3 314 0.0 0.0 0.00 0.03 0.00 75 1001.4
20260508081528 3 314 0.0 0.0 0.00 0.03 0.00 75 1001.1
20260508080049 3 314 0.0 0.0 0.00 0.03 0.00 74 1000.9
20260508074525 3 314 0.0 0.0 0.00 0.03 0.00 74 1000.7
20260508073022 3 314 0.0 0.0 0.00 0.03 0.00 74 1000.4
20260508071522 3 314 0.0 0.0 0.00 0.03 0.00 74 1000.2
20260508070023 3 314 0.0 0.0 0.00 0.03 0.00 73 1000.1
20260508064536 3 314 0.0 0.0 0.00 0.03 0.00 73 1000.2
20260508063014 4 314 0.0 0.0 0.00 0.03 0.00 72 1000.2
20260508061518 5 314 0.0 0.0 0.00 0.03 0.00 71 1000.2
20260508060013 5 314 0.0 0.0 0.00 0.03 0.00 71 1000.1
20260508054519 5 314 0.0 0.0 0.00 0.03 0.00 71 1000.3
20260508053010 5 314 0.0 0.0 0.00 0.03 0.00 70 1000.4
20260508051507 5 314 0.0 0.0 0.00 0.03 0.00 71 1000.6
20260508050008 5 314 0.0 0.0 0.00 0.03 0.00 71 1000.8
20260508044501 6 314 0.0 0.0 0.00 0.03 0.00 68 1000.8
20260508043104 6 314 0.0 0.0 0.00 0.03 0.00 66 1000.9
20260508041555 7 314 0.0 0.0 0.00 0.03 0.00 61 1000.9
20260508040057 7 314 0.0 0.0 0.00 0.05 0.00 59 1000.9
20260508034550 7 314 0.0 0.0 0.00 0.05 0.00 62 1000.8
20260508033047 8 312 0.0 0.0 0.00 0.05 0.00 58 1000.8
20260508031517 8 311 0.0 0.0 0.00 0.05 0.00 57 1000.7
20260508030011 9 311 0.0 0.0 0.00 0.05 0.00 57 1000.7
20260508024539 9 311 0.0 0.0 0.00 0.05 0.00 54 1000.9
20260508023037 10 310 0.0 0.0 0.00 0.05 0.00 53 1000.9
20260508021533 10 311 0.0 0.0 0.00 0.05 0.00 52 1000.7
20260508020030 10 310 0.0 3.2 0.00 0.05 0.00 50 1000.9
20260508014528 10 310 0.0 1.6 0.00 0.05 0.00 50 1000.8
20260508013025 10 309 0.0 0.0 0.00 0.05 0.00 50 1000.5
20260508011520 11 310 0.0 0.0 0.00 0.05 0.00 50 1000.3
20260508010019 11 310 0.0 0.0 0.00 0.05 0.00 49 1000.1
20260508004517 11 310 0.0 0.0 0.00 0.05 0.00 48 999.8
20260508003012 11 310 0.0 0.0 0.00 0.05 0.00 47 999.6
20260508001541 12 310 1.6 6.4 0.00 0.05 0.00 46 999.6
20260508000037 12 321 0.0 6.4 0.00 0.08 0.00 44 999.4
20260507234544 13 308 1.6 11.3 0.00 0.08 0.00 42 999.2
20260507233030 13 344 3.2 8.0 0.00 0.08 0.00 42 999.2
20260507231526 13 318 3.2 8.0 0.00 0.08 0.00 41 999.2
20260507230026 13 307 4.8 12.9 0.00 0.23 0.08 39 999.1
20260507224521 15 336 3.2 16.1 0.00 0.23 0.08 37 998.7
20260507223021 15 315 6.4 12.9 0.00 0.23 0.08 38 998.6
20260507221529 15 348 3.2 14.5 0.00 0.23 0.08 38 998.5
20260507220022 15 319 6.4 14.5 0.00 0.25 0.08 36 998.3
20260507214517 15 325 4.8 17.7 0.00 0.25 0.08 37 998.2
20260507213023 16 304 3.2 16.1 0.00 0.25 0.08 34 998.1
20260507211517 16 325 3.2 12.9 0.00 0.25 0.08 38 998.1
20260507210024 15 345 6.4 14.5 0.00 0.30 0.08 36 997.9
20260507204548 16 337 4.8 16.1 0.00 0.30 0.08 36 998.1
20260507203044 16 334 3.2 12.9 0.00 0.30 0.08 34 998.1
20260507201539 16 319 4.8 16.1 0.00 0.30 0.08 35 997.9
20260507200050 16 312 6.4 19.3 0.00 0.38 0.08 35 998.0
20260507194548 16 325 4.8 20.9 0.00 0.38 0.08 35 998.0
20260507193038 16 334 6.4 17.7 0.00 0.38 0.08 37 998.1
20260507191536 16 332 0.0 16.1 0.00 0.38 0.08 38 998.2
20260507190044 16 360 3.2 11.3 0.00 0.38 0.08 41 998.4
20260507184542 16 345 6.4 20.9 0.00 0.38 0.08 37 998.6
20260507183032 16 327 6.4 16.1 0.00 0.38 0.08 40 998.9
20260507181529 16 306 4.8 16.1 0.00 0.38 0.08 37 998.8
20260507180129 15 317 4.8 17.7 0.00 0.38 0.08 35 999.2
20260507174532 16 293 4.8 16.1 0.00 0.38 0.08 34 999.0
20260507173040 15 344 3.2 14.5 0.00 0.38 0.08 36 999.0
20260507171520 15 302 3.2 19.3 0.00 0.38 0.08 37 998.8
20260507170021 15 346 4.8 17.7 0.00 0.38 0.08 38 999.1
20260507164523 15 319 3.2 16.1 0.00 0.38 0.08 41 999.2
20260507163018 15 343 4.8 16.1 0.03 0.38 0.08 44 999.6
20260507161517 15 308 4.8 17.7 0.03 0.38 0.08 46 999.9
20260507161514 15 302 4.8 17.7 0.03 0.38 0.08 46 999.9
20260507160012 14 329 4.8 19.3 0.03 0.38 0.08 50 1000.0
20260507154510 15 347 4.8 16.1 0.03 0.38 0.08 53 999.8
20260507153008 14 339 4.8 19.3 0.00 0.36 0.05 53 999.9
20260507151506 14 308 6.4 17.7 0.00 0.36 0.05 56 999.8
20260507150003 13 346 3.2 11.3 0.00 0.36 0.05 60 1000.0
20260507144504 13 341 4.8 14.5 0.00 0.36 0.05 63 1000.0
20260507143119 14 339 1.6 16.1 0.00 0.36 0.05 65 1000.1
20260507141604 13 285 4.8 14.5 0.00 0.36 0.05 67 1000.0
20260507140058 13 318 3.2 14.5 0.00 0.36 0.05 68 1000.0
20260507134555 12 310 1.6 11.3 0.00 0.36 0.05 70 1000.0
20260507133055 13 331 1.6 8.0 0.00 0.36 0.05 68 999.9